Weather Roundup
Issued by NWS Chicago, IL

Home | Current Version | Previous Version | Text Only | Print | Product List | Glossary On
Versions: 1 2 3 4 5 6 7 8 9 10 11 12 13 14 15 16 17 18 19 20 21 22 23 24 25 26 27 28 29 30 31 32 33 34 35 36 37 38 39 40 41 42 43 44 45 46 47 48 49 50
000
NZUS59 KLOT 240512
HRRLOT

CHICAGO AREA WEATHER ROUNDUP
NATIONAL WEATHER SERVICE CHICAGO/ROMEOVILLE IL
1100 PM CST MON JAN 23 2017

NOTE: "FAIR" INDICATES FEW OR NO CLOUDS BELOW 12,000 FEET WITH NO
SIGNIFICANT WEATHER AND/OR OBSTRUCTIONS TO VISIBILITY.

* THESE STATIONS ARE NOT UNDER NWS QUALITY CONTROL. THEY ALSO MAY NOT
  REPORT WEATHER SUCH AS PRECIPITATION OR FOG.

ILZ005-006-012>014-019>023-240600-
NORTHEAST ILLINOIS

CITY           SKY/WX    TMP DP  RH WIND       PRES   REMARKS
OHARE          CLOUDY    38  35  89 N6        29.81R
MIDWAY         CLOUDY    40  34  79 N7        29.81R
AURORA         CLOUDY    36  34  92 NW3       29.82S
LANSING*       CLOUDY    40  37  89 NW5       29.81S
JOLIET*        CLOUDY    40  37  89 CALM      29.82S
WAUKEGAN       CLOUDY    38  35  89 NW3       29.80S
DUPAGE AIRPORT CLOUDY    39  33  79 N8        29.81S
WHEELING       CLOUDY    38  34  85 N6        29.82F
KANKAKEE*      CLOUDY    40  33  76 CALM      29.82S
MORRIS*        CLOUDY    37  36  93 CALM      29.82R
LEWIS AIRPORT* CLOUDY    39  37  93 NW5       29.82R
NORTHERLY ISL    N/A     40  33  76 W6          N/A
$$

WIZ051-052-058>065-066-070>072-240600-
SOUTHEAST WISCONSIN

CITY           SKY/WX    TMP DP  RH WIND       PRES   REMARKS
MILWAUKEE      CLOUDY    39  34  82 NW3       29.81S
KENOSHA*       CLOUDY    38  34  85 NW5       29.81S
RACINE*        CLOUDY    38  34  85 CALM      29.83R
WAUKESHA       CLOUDY    34  32  93 NW3       29.81S FOG
WEST BEND      CLOUDY    34  34 100 CALM      29.80S
$$

INZ001>003-010>013-019-020-240600-
NORTHWEST INDIANA

CITY           SKY/WX    TMP DP  RH WIND       PRES   REMARKS
GARY*          CLOUDY    40  35  80 NW7       29.82R
MICHIGAN CITY* NOT AVBL
RENSSELAER*    NOT AVBL
VALPARAISO     CLOUDY    40  37  89 NW10      29.80R
$$

LMZ740>746-240600-
SOUTHERN LAKE MICHIGAN

STATION/POSITION TIME  SKY/WX   TEMP WIND        PRES    VSBY
                                AIR  DIR/SP/G
                 (UTC)          (F)  (DEG/KT/KT) (MB)    (MI)
HARRISON CRIB    0440            38  340/ 11/ 11   N/A
BURNHAM HARBOR   0500            40  320/  4/  8   N/A
CALUMET HARBOR   0448            38  340/  5/  6 1009.0R
BURNS HARBOR     0500            36  330/  9/ 12 1009.8
MICHIGAN CITY    0440            37  300/ 12/ 13   N/A
$$

ABBREVIATIONS USED IN REMARKS
   TC - TEMPERATURE IN CELSIUS
  WCI - WIND CHILL INDEX
   HX - HEAT INDEX
  VSB - VISIBILITY
$$




USA.gov is the U.S. government's official web portal to all federal, state and local government web resources and services.